• Join FlightAware (Why Join?)
  • Login
  • US Flag GB Flag 
20:15 EST


 

Airport Tracker/Info


-or-


 

Live Flight TrackerFlight Track Log ✈ DAL1562 ✈ 18-Apr-2013 ✈ KDTW - KPHL

Flight Track Log - Related Links

Times and Time Zones

All times are in EDT time to prevent confusion due to time zone crossing. See the DAL1562 flight status page for this flight to view local times or setup timezone preferences in your user account.

Time Position Orientation Groundspeed Altitude Reporting Facility
EDT Latitude Longitude Course Direction KTS MPH feet Rate Location/Type
17:25 42.2047 -83.3533 97° East 157 181 1,300  Level FAA TRACON SMA TRACON (SMA)
17:26 42.1925 -83.3533 180° South 162 186 2,100 1,800 Climbing FAA TRACON SMA TRACON (SMA)
17:26 42.1736 -83.3481 168° South 192 221 2,500 1,020 Climbing FAA TRACON SMA TRACON (SMA)
17:26 42.1525 -83.3439 172° South 227 261 2,800 1,020 Climbing FAA TRACON SMA TRACON (SMA)
17:27 42.1331 -83.3403 172° South 252 290 3,200 1,920 Climbing FAA TRACON SMA TRACON (SMA)
17:27 42.1117 -83.3331 166° South 272 313 4,100 3,720 Climbing FAA TRACON SMA TRACON (SMA)
17:27 42.0933 -83.3019 128° Southeast 285 328 5,700 4,440 Climbing FAA TRACON SMA TRACON (SMA)
17:28 42.2167 -82.8633 90° East  Level FlightAware Approximate
17:28 42.0928 -83.2697 91° East 276 318 7,000  Level FAA TRACON SMA TRACON (SMA)
17:28 42.1019 -83.2364 70° East 304 350 7,700 2,220 Climbing FAA TRACON SMA TRACON (SMA)
17:28 42.1158 -83.1933 66° East 327 376 8,500 2,520 Climbing FAA TRACON SMA TRACON (SMA)
17:29 42.2167 -82.6988 90° East  Level FlightAware Approximate
17:29 42.1275 -83.1581 66° East 333 383 9,400  Level FAA TRACON SMA TRACON (SMA)
17:29 42.1389 -83.1231 66° East 333 383 9,900 900 Climbing FAA TRACON SMA TRACON (SMA)
17:29 42.1536 -83.0783 66° East 337 388 10,000 720 Climbing FAA TRACON SMA TRACON (SMA)
17:30 42.2167 -82.5343 90° East  Level FlightAware Approximate
17:30 42.1656 -83.0417 66° East 342 394 10,400  Level FAA TRACON SMA TRACON (SMA)
17:30 42.1778 -83.0025 67° East 377 434 10,700 1,020 Climbing FAA TRACON SMA TRACON (SMA)
17:30 42.1928 -82.9508 69° East 388 447 11,100 1,200 Climbing FAA TRACON SMA TRACON (SMA)
17:31 42.2113 -82.3701 97° East  Level FlightAware Approximate
17:31 42.2064 -82.9072 67° East 403 464 11,500  Level FAA TRACON SMA TRACON (SMA)
17:31 42.2233 -82.8514 68° East 414 476 12,900 3,900 Climbing FAA TRACON SMA TRACON (SMA)
17:31 42.2369 -82.8078 67° East 411 473 14,100 2,880 Climbing FAA TRACON SMA TRACON (SMA)
17:32 42.2494 -82.7656 68° East 401 461 14,800 1,740 Climbing FAA TRACON SMA TRACON (SMA)
17:32 42.2625 -82.7225 68° East 402 463 15,300 2,520 Climbing FAA TRACON SMA TRACON (SMA)
17:32 42.2794 -82.6669 68° East 412 474 16,500 2,820 Climbing FAA TRACON SMA TRACON (SMA)
17:33 42.2931 -82.6228 67° East 413 475 17,200 2,520 Climbing FAA TRACON SMA TRACON (SMA)
17:33 42.3061 -82.5783 68° East 414 476 18,200 3,000 Climbing FAA TRACON SMA TRACON (SMA)
17:33 42.3225 -82.5231 68° East 413 475 19,200 2,040 Climbing FAA TRACON SMA TRACON (SMA)
17:34 42.3356 -82.4789 68° East 413 475 19,600 1,800 Climbing FAA TRACON SMA TRACON (SMA)
17:34 42.3492 -82.4342 68° East 416 479 20,400 2,100 Climbing FAA TRACON SMA TRACON (SMA)
17:34 42.3656 -82.3778 69° East 418 481 21,000 1,620 Climbing FAA TRACON SMA TRACON (SMA)
17:35 42.3775 -82.3319 71° East 422 486 21,500 1,620 Climbing FAA TRACON SMA TRACON (SMA)
17:35 42.3739 -82.2725 95° East 402 463 22,100 1,140 Climbing FAA TRACON SMA TRACON (SMA)
17:35 42.3581 -82.2303 117° Southeast 403 464 22,300 600 Climbing FAA TRACON SMA TRACON (SMA)
17:36 42.3347 -82.1953 132° Southeast 389 448 22,500 300 Climbing FAA TRACON SMA TRACON (SMA)
17:36 42.3286 -82.1872 136° Southeast 397 457 22,500  Level FAA TRACON SMA TRACON (SMA)
17:36 42.3286 -82.1872 304° West 397 457 22,500 1,320 Level FAA TRACON SMA TRACON (SMA)
17:37 42.2461 -82.0808 136° Southeast 370 426 23,600 960 Climbing Cleveland Center
17:38 42.1558 -81.9669 137° Southeast 415 478 24,000 180 Climbing Cleveland Center
17:39 42.0697 -81.8586 137° Southeast 434 499 24,000 240 Level Cleveland Center
17:40 41.9728 -81.7367 137° Southeast 439 505 24,500 780 Climbing Cleveland Center
17:41 41.8844 -81.6206 136° Southeast 439 505 25,600 1,500 Climbing Cleveland Center
17:42 41.7917 -81.5078 138° Southeast 444 511 27,500 1,200 Climbing Cleveland Center
17:43 41.7028 -81.3897 135° Southeast 444 511 28,000 660 Climbing Cleveland Center
17:44 41.6097 -81.2636 135° Southeast 454 522 28,900 480 Climbing Cleveland Center
17:45 41.5167 -81.1378 135° Southeast 467 537 29,000  Climbing Cleveland Center
17:46 41.4358 -81.0264 134° Southeast 467 537 29,000  Level Cleveland Center
17:47 41.3444 -80.9039 135° Southeast 462 532 29,000  Level Cleveland Center
17:48 41.2531 -80.7792 134° Southeast 462 532 29,000  Level Cleveland Center
17:49 41.1594 -80.6575 136° Southeast 462 532 29,000  Level Cleveland Center
17:50 41.0719 -80.5336 133° Southeast 462 532 29,000  Level Cleveland Center
17:51 40.9822 -80.4153 135° Southeast 462 532 29,000  Level Cleveland Center
17:52 40.8903 -80.2947 135° Southeast 462 532 29,000 -60 Level Cleveland Center
17:53 40.8022 -80.1553 130° Southeast 457 526 28,900  Descending Cleveland Center
17:54 40.7453 -79.9994 116° Southeast 462 532 29,000  Climbing Cleveland Center
17:55 40.6922 -79.8439 114° Southeast 467 537 29,000  Level Cleveland Center
17:56 40.6347 -79.6883 116° Southeast 461 531 29,000  Level Cleveland Center
17:57 40.5919 -79.5331 110° East 461 531 29,000  Level Cleveland Center
17:58 40.5756 -79.3583 97° East 461 531 29,000  Level Cleveland Center
17:59 40.5572 -79.2086 99° East 461 531 29,000  Level Cleveland Center
18:00 40.5361 -79.0369 99° East 466 536 29,000 -60 Level Cleveland Center
18:01 40.5169 -78.8681 98° East 466 536 28,900  Descending Cleveland Center
18:02 40.4978 -78.6964 98° East 466 536 29,000 -360 Climbing Cleveland Center
18:03 40.4781 -78.5222 98° East 466 536 28,200 -960 Descending Cleveland Center
18:04 40.4603 -78.3564 98° East 466 536 27,100 -1,140 Descending Cleveland Center
18:05 40.4336 -78.1422 99° East 427 491 25,600 -900 Descending New York Center
18:06 40.4164 -77.9847 98° East 432 497 25,000 -300 Descending New York Center
18:07 40.3903 -77.8294 102° East 432 497 25,000  Level New York Center
18:08 40.3639 -77.6767 103° East 432 497 25,000  Level New York Center
18:09 40.3372 -77.5217 103° East 437 503 25,000 -480 Level New York Center
18:10 40.3125 -77.3722 102° East 437 503 24,100 -960 Descending New York Center
18:11 40.2811 -77.2194 105° East 437 503 23,100 -1,140 Descending New York Center
18:12 40.2561 -77.0647 102° East 437 503 21,900 -1,800 Descending New York Center
18:13 40.2306 -76.9183 103° East 425 489 19,500 -2,460 Descending New York Center
18:14 40.2053 -76.7611 102° East 411 473 17,100 -2,340 Descending New York Center
18:15 40.1844 -76.6397 103° East 393 452 14,900 -2,100 Descending New York Center
18:16 40.1667 -76.4889 99° East 383 441 12,900 -1,020 Descending New York Center
18:17 40.1522 -76.3544 98° East 372 428 12,900 60 Level New York Center
18:18 40.1436 -76.2853 99° East 371 427 13,000 60 Climbing FAA TRACON SMA TRACON (SMA)
18:18 40.1381 -76.2336 98° East 372 428 13,000 -180 Level FAA TRACON SMA TRACON (SMA)
18:18 40.1333 -76.1964 99° East 373 429 12,900 -300 Descending FAA TRACON SMA TRACON (SMA)
18:19 40.1286 -76.1506 98° East 375 432 12,800 -1,380 Descending FAA TRACON SMA TRACON (SMA)
18:19 40.1225 -76.0986 99° East 375 432 12,000 -2,400 Descending FAA TRACON SMA TRACON (SMA)
18:19 40.1183 -76.0581 98° East 372 428 11,200 -1,800 Descending FAA TRACON SMA TRACON (SMA)
18:20 40.1153 -76.0194 96° East 363 418 10,800 -1,380 Descending FAA TRACON SMA TRACON (SMA)
18:20 40.1089 -75.9758 101° East 318 366 10,300 -1,740 Descending FAA TRACON SMA TRACON (SMA)
18:20 40.1047 -75.9419 99° East 310 357 9,700 -1,800 Descending FAA TRACON SMA TRACON (SMA)
18:21 40.1006 -75.9083 99° East 305 351 9,100 -1,800 Descending FAA TRACON SMA TRACON (SMA)
18:21 40.0817 -75.8756 127° Southeast 287 330 8,500 -1,500 Descending FAA TRACON SMA TRACON (SMA)
18:21 40.0656 -75.8522 132° Southeast 283 326 8,100 -1,380 Descending FAA TRACON SMA TRACON (SMA)
18:22 40.0497 -75.8289 132° Southeast 285 328 7,600 -1,380 Descending FAA TRACON SMA TRACON (SMA)
18:22 40.0292 -75.7992 132° Southeast 281 323 7,200 -900 Descending FAA TRACON SMA TRACON (SMA)
18:22 40.0136 -75.7778 134° Southeast 272 313 7,000 -480 Descending FAA TRACON SMA TRACON (SMA)
18:23 40.0003 -75.7583 132° Southeast 237 273 6,900 -480 Descending FAA TRACON SMA TRACON (SMA)
18:23 39.9853 -75.7358 131° Southeast 226 260 6,700 -900 Descending FAA TRACON SMA TRACON (SMA)
18:23 39.9728 -75.7164 130° Southeast 221 254 6,300 -1,080 Descending FAA TRACON SMA TRACON (SMA)
18:24 39.9597 -75.6983 133° Southeast 217 250 6,000 -1,200 Descending FAA TRACON SMA TRACON (SMA)
18:24 39.9450 -75.6764 131° Southeast 214 246 5,500 -1,380 Descending FAA TRACON SMA TRACON (SMA)
18:24 39.9331 -75.6581 130° Southeast 212 244 5,100 -1,380 Descending FAA TRACON SMA TRACON (SMA)
18:25 39.9217 -75.6408 131° Southeast 208 239 4,600 -1,380 Descending FAA TRACON SMA TRACON (SMA)
18:25 39.9078 -75.6203 131° Southeast 208 239 4,200 -900 Descending FAA TRACON SMA TRACON (SMA)
18:25 39.8975 -75.6047 131° Southeast 207 238 4,000 -480 Descending FAA TRACON SMA TRACON (SMA)
18:26 39.8842 -75.5847 131° Southeast 206 237 3,900 -900 Descending FAA TRACON SMA TRACON (SMA)
18:26 39.8697 -75.5633 131° Southeast 205 236 3,400 -1,200 Descending FAA TRACON SMA TRACON (SMA)
18:26 39.8581 -75.5464 132° Southeast 207 238 3,100 -600 Descending FAA TRACON SMA TRACON (SMA)
18:27 39.8475 -75.5311 132° Southeast 202 232 3,000 -180 Descending FAA TRACON SMA TRACON (SMA)
18:27 39.8325 -75.5114 135° Southeast 188 216 3,000 -180 Level FAA TRACON SMA TRACON (SMA)
18:27 39.8278 -75.4922 108° East 187 215 2,900 -300 Descending FAA TRACON SMA TRACON (SMA)
18:28 39.8247 -75.4722 101° East 182 209 2,800 -480 Descending FAA TRACON SMA TRACON (SMA)
18:28 39.8261 -75.4522 85° East 183 211 2,600 -600 Descending FAA TRACON SMA TRACON (SMA)
18:28 39.8306 -75.4278 77° East 185 213 2,400 -600 Descending FAA TRACON SMA TRACON (SMA)